Location: La Silve
(44.2414°N, 5.8889°E)
Time: 04:46:23
(UTC+00:00)

Cosmos 1933 Rocket - Pass Details

Date: 01 December 2020
Orbit: 605 x 631 km, 82.5° (Epoch: 24 January)

Event Time Altitude Azimuth Distance (km) Brightness Sun altitude
Rises 17:37:01 0° 351° (N) 2,935 7.0 -17.1°
Reaches altitude 10° 17:39:16 10° 351° (N) 2,022 6.1 -17.5°
Maximum altitude 17:43:46 89° 271° (W) 637 3.5 -18.2°
Drops below altitude 10° 17:48:13 10° 173° (S) 1,998 6.2 -19.0°
Sets 17:50:25 0° 174° (S) 2,897 7.1 -19.4°
